Погода Наро-Фоминск

Погода Наро-Фоминск : погода сейчас, прогноз погоды и архив. Всё, что Вы хотите узнать о погоде Наро-Фоминск!

Хотите узнать прогноз погоды Наро-Фоминск? Тогда Вам сюда: Погода Наро-Фоминск

Поиск расширенной информации на нашем сайте:

Другие новости

Новости СМИ2

Главная страница сайта

Новости сайта

03.07.2017

Напоминаем, что на нашем специализированном сайте Метеоцентр.Азия вы можете получить высокодетализированные автоматические прогнозы погоды по пунктам России, СНГ и мира в авиационном формате (включающие направление и скорость ветра, видимость, явления погоды, количество и форму облачности, нижнюю и верхнюю границу облачности).


Погода Наро-Фоминск - сегодня

Время (UTC), дата Ветер
(°,м/с) 
Видим.   Явления Облачность Т
(°С)
Тd
(°С)
f(%) Тe
(°С)
Pmin
(гПа)
dP
(гПа)
Po
(мм)
O2
(г/м3)
Тmin Tmax R s Состояние
почвы
09 07.02.18 180 (Ю) 10 км  {ливн. осадки}  9/5 300 м кучево-дожд., верхняя 
[Cb cap|Ci fib]
-9.5 -11.5 85 -12  1031  1.3  754  316           
12 07.02.18 200 (Ю) 10 км  {ливн. осадки}  10/10 300 м кучево-дожд. 
[Cb cap]
-7.4 -9.2 87 -10  1031.8  755  314           
15 07.02.18 170 (Ю) 10 км    8/4 600 м средняя 
[Sc diur, vesp|Ac trans]
-8.5 -9.4 93 -10  1032.9  756  315      0.2     
18 07.02.18 170 (Ю) 10 км    3/0 средняя 
[Ac trans]
-11.1 -11.8 95 -13  1034.3  1.1  757  319    -7.2  0.2     
21 07.02.18 150 (ЮВ) 10 км    ясно 
-13.1 -14 93 -13  1034.9  0.4  757  322           
00 08.02.18 160 (Ю) 10 км    1/0 средняя 
[Ac trans]
-14.6 -15.6 92 -15  1034.9  -0.2  757  324           
03 08.02.18 150 (ЮВ) 10 км    10/10 600 м 
[Sc]
-13.1 -14.7 88 -13  1034  -0.7  756  321  -15.4         
06 08.02.18 140 (ЮВ) 10 км  слаб. ливневой снег  10/10 300 м кучево-дожд. 
[Cb cap]
-11.3 -13 87 -13  1033.2  -0.7  756  319  -15.4    0.0  42  равномерный
сухой снег
100% 
09 08.02.18 140 (ЮВ) 10 км  {ливн. осадки}  9/8 600 м средняя 
[Sc|Ac trans]
-9.6 -11.7 85 -14  1032.6  -0.3  756  317           
12 08.02.18 130 (ЮВ) 10 км  {ливн. осадки}  10/6 600 м верхняя 
[Sc|Cs]
-7.7 -9.7 86 -10  1031.9  -0.5  755  314           
15 08.02.18 100 (В) 4000 м  дымка  10/10 600 м 
[Sc]
-7.3 -8.7 90 -10  1031.1  -0.7  755  313      0.0     
18 08.02.18 110 (В) 10 км    10/10 600 м 
[Sc]
-6.9 -7.9 93 -10  1029.7  -1.3  754  312    -6.9  0.0     
21 08.02.18 120 (ЮВ) 10 км    10/10 600 м 
[Sc]
-5.8 -6.9 92 -9  1028.1  -1.5  752  311           
00 09.02.18 120 (ЮВ) 10 км    10/10 600 м 
[Sc]
-4.9 -5.8 93 -8  1026.7  -1.2  752  309           
03 09.02.18 120 (ЮВ) 10 км  позёмок  10/10 600 м 
[Sc]
-5.8 -6.7 93 -10  1026  -0.8  751  310           
06 09.02.18 120 (ЮВ) 4000 м  слаб. ливневой снег  10/10 600 м кучево-дожд. 
[Cb cap]
-7.6 -9 90 -10  1026.6  0.5  751  312  -7.6    0.0  40  равномерный
сухой снег
100% 
09 09.02.18 100 (В) 4000 м  дымка{ливн. осадки}  10/10 600 м кучево-дожд. 
[Cb cap]
-7.2 -8.9 88 -10  1026.1  -0.5  751  312           
12 09.02.18 100 (В) 4000 м  дымка{ливн. осадки}  8/6 600 м кучево-дожд., верхняя 
[Cb cap|Ci fib]
-5.5 -7.5 86 -8  1024.3  -1.6  750  309           
15 09.02.18 090 (В) 4000 м  дымка  9/5 600 м кучево-дожд., верхняя 
[Cb cap|Ci fib]
-5.8 -7.1 90 -7  1024.1  -0.2  750  309      0.0     
18 09.02.18 100 (В) 10 км    10/0 средняя 
[Ac und]
-5.7 -8.1 83 -8  1023.8  -0.3  749  309    -5.3  0.0     
09 22.02.18 320 (СЗ) 10 км  {ливн. осадки}  3/3 600 м 
[Cu med, cong]
-9.6 -14.8 66 -11  1028.6  0.4  753  316           
03 16.03.18 330 (СЗ) 10 км  слаб. ливневой снег  10/10 300 м кучево-дожд. 
[Cb cap]
-9 -12.9 73 -12  1012.7  1.1  741  310  -9    0.0     
12 26.03.18 210 (ЮЗ) 5{10}  10 км    9/6 600 м средняя 
[Sc|Ac trans]
+4.5 -4.6 52 +2  1007.1  -0.7  738  293           
03 07.04.18 240 (ЮЗ) 10 км    9/9 600 м 
[Sc]
+2.3 -3.7 64 1014.1  0.5  743  297  +2.1    0.5     
21 06.05.18 350 (С) 10 км    9/9 600 м 
[Sc diur, vesp]
+12.6 +10.3 86 +15  1021.1  0.8  749  286    +13.9       
Время (UTC), дата Ветер
(°,м/с) 
Видим.   Явления Облачность Т
(°С)
Тd
(°С)
f(%) Тe
(°С)
Pmin
(гПа)
dP
(гПа)
Po
(мм)
O2
(г/м3)
Тmin Tmax R s Состояние
почвы

Для получения пояснительной информации подведите курсор к названию столбца.

ПОГОДА Наро-Фоминск - архив

Всё, что Вы хотите узнать о погоде Наро-Фоминск - удобно и подробно!

Выберите нужную дату (начиная с 1 января 2015* года) и нажмите кнопку "Найти".
Будут отображены архивные сводки погоды по пункту Наро-Фоминск, начиная с указанной даты.


Отображать данные в формате CSV (для использования в таблицах Excel)


Внимание! Наш архив погоды предназначен исключительно для личного некоммерческого использования в познавательных целях. Если Вам необходимы официальные справки о состоянии погоды (для производственных, юридических, коммерческих и т.п. целей), обращайтесь в органы Росгидромета.

*Примечание: данная дата относится к архиву по метеостанциям СССР (Россия, СНГ, Балтия).
Архив по метеостанциям Зарубежной Европы и Азии (кроме Китая) хранится 10 дней, по другим регионам земного шара (Китай, Африка, Америка, Австралия, Океания) - 1 день.

Наро-Фоминск - район местоположения метеостанции


Название, широта, долгота, высота метеостанции:
Наро-Фоминск 55.4°ш. 36.7°д. 193 м над ур. моря [Российская Федерация]

Дополнительная информация

В oтличие oт бoльшинства пoгoдных сайтoв мы публикуем пoдрoбную метеoинфoрмацию в детальнoм прoфессиoнальнoм фoрмате.

Характеристики температуры и влажнoсти вoздуха измеряются на высoте 2 м в тени вдали oт зданий и деревьев.
Скoрoсть ветра измеряется на высoте 10 м (на урoвне рoста челoвека скoрoсть ветра ниже в 1.5-2 раза). Если метеoстанция нахoдится в гoрoде или в лесу, тo скoрoсть ветра занижена на 2-4 м/с пo сравнению с oткрытым местoм. Скoрoсть ветра над акватoриями крупных рек и oзёр, а также на вершинах хoлмoв на 2-5 м/с выше, чем в oбычных услoвиях.
Атмoсфернoе давление в разных тoчках местнoсти мoжет значительнo oтличаться oт давления на метеoстанции, в зависимoсти oт услoвий рельефа (при пoдъёме на 10 м давление пoнижается примернo на 1 мм рт.ст.).